星链-3260 (STARLINK-3260 )

导读

STARLINK-3260是美国SpaceX公司星链星座的成员,于2021年12月18日发射入轨。星链计划旨在构建全球低轨卫星互联网星座,该卫星运行在近地轨道,属于星链第一代组网卫星,为全球偏远地区、灾害场景等提供宽带互联网接入服务。作为已组网的星链卫星之一,它和其他星链卫星共同构成覆盖全球的卫星通信网络,截至2026年,星链已为全球上百个国家提供服务,STARLINK-3260也持续为星座的全球覆盖能力提供支撑。

基本信息
目录编号:
50205
目录名称:
STARLINK-3260
国际标识:
2021-125BB
轨道中心:
EARTH
卫星名称:
星链-3260
卫星全名:
星链-3260 (STARLINK-3260 )
卫星状态:
在轨 (已飞行1721 天)
发射日期:
2021-12-18 UTC
国别 :
美国 (US)
星等 :
--
轨道信息
数据来源 国际轨道数据
星历时间: 2026-09-04T04:00:02+0800
7小时前
查看轨道信息
半长轴: 6848.804km
偏心率: 0.0001096
轨道倾角: 53.158°
近地点辐角 105.044°
升交点赤经 126.411°
平近点角 302.411°
近地点: 469.916km
远地点: 471.418km
周期: 94.012分钟
每日圈数: 15.317247
详细信息
固有亮度:
5
最大亮度:
2.5
卫星平台:
Starlink v1.5
覆盖范围:
全球
运营商:
太空探索技术公司
运营商所在国:
美国
制造商(研发单位):
太空探索技术公司
制造商所在国:
美国
使用方式:
暂无
卫星简介
星链(Starlink)计划是由太空探索技术公司(SpaceX)提出的一个巨型低轨卫星互联网星座项目,计划在2019年至2024年间在太空搭建由约1.2万颗卫星组成的“星链”网络,其中1584颗将部署在地球上空550千米处的近地轨道,并从2020年开始工作。该卫星仍在工作。
2D轨道图
3D轨道图
轨道高度分析图
轨道倾角分析图
轨道综合分析图
查看轨道综合分析图